{"data":{"norad_id":60577,"intl_designator":"2024-149DP","name":"LEMUR-2-LLOYD","alt_names":[],"object_type":"PAYLOAD","status":"ACTIVE","operator":null,"country":"US","launch_date":"2024-08-16","launch_site_code":"AFWTR","launch_vehicle":null,"mission":null,"orbit_class":"UNKNOWN","rcs_meters":null,"size_class":null,"mass_kg":null,"dimensions":null,"purposes":["earth_obs"],"wikipedia_slug":null,"has_3d_model":false,"image_url":null,"decayed_at":null,"tle_current":{"epoch":"2026-05-25T03:57:34.803360Z","epoch_age_seconds":54111,"freshness":"FRESH","line1":"1 60577U 24149DP  26145.16498615  .00010439  00000+0  66902-3 0  9995","line2":"2 60577  97.6744 226.2908 0003348 204.0422 156.0650 15.08713342 96928","mean_motion":15.08713342,"eccentricity":0.0003348,"inclination_deg":97.6744,"raan_deg":226.2908,"arg_perigee_deg":204.0422,"mean_anomaly_deg":156.065,"bstar":0.00066902,"rev_number":9692,"period_min":95.445566756312,"perigee_km":537.81432290502,"apogee_km":542.44679486245,"semimajor_km":6918.2675588837,"source":"CELESTRAK","updated_at":"2026-05-25T13:38:13.536477Z"}}}